| time (UTC) | temp F | wind direction | speed MPH | gust MPH | rain 1hr in | rain 24hr in | rain mn in | humidity % | barometer mb |
| 20260905031943 | 82 | 322 | 0.0 | 0.0 | 0.00 | 0.00 | 0.00 | 67 | |
| 20260905031438 | 82 | 322 | 0.0 | 0.0 | 0.00 | 0.00 | 0.00 | 67 | |
| 20260905030933 | 82 | 322 | 0.0 | 0.0 | 0.00 | 0.00 | 0.00 | 67 | |
| 20260905030429 | 82 | 322 | 0.0 | 0.0 | 0.00 | 0.00 | 0.00 | 66 | |
| 20260905025927 | 83 | 322 | 0.0 | 0.0 | 0.00 | 0.00 | 0.00 | 66 | |
| 20260905025423 | 83 | 322 | 0.0 | 0.0 | 0.00 | 0.00 | 0.00 | 66 | |
| 20260905024919 | 83 | 322 | 0.0 | 0.0 | 0.00 | 0.00 | 0.00 | 66 | |
| 20260905024414 | 83 | 322 | 0.0 | 0.0 | 0.00 | 0.00 | 0.00 | 65 | |
| 20260905023910 | 83 | 322 | 0.0 | 0.0 | 0.00 | 0.00 | 0.00 | 65 | |
| 20260905023405 | 83 | 322 | 0.0 | 0.0 | 0.00 | 0.00 | 0.00 | 66 | |
| 20260905022903 | 83 | 322 | 0.0 | 0.0 | 0.00 | 0.00 | 0.00 | 65 | |
| 20260905022359 | 84 | 322 | 0.0 | 0.0 | 0.00 | 0.00 | 0.00 | 65 | |
| 20260905021854 | 84 | 322 | 0.0 | 0.0 | 0.00 | 0.00 | 0.00 | 65 | |
| 20260905021349 | 84 | 322 | 0.0 | 0.0 | 0.00 | 0.00 | 0.00 | 65 | |
| 20260905020844 | 84 | 322 | 0.0 | 0.0 | 0.00 | 0.00 | 0.00 | 65 | |
| 20260905020338 | 84 | 322 | 0.0 | 0.0 | 0.00 | 0.00 | 0.00 | 65 | |
| 20260905015838 | 84 | 322 | 0.0 | 0.0 | 0.00 | 0.00 | 0.00 | 64 | |
| 20260905015337 | 84 | 322 | 0.0 | 0.0 | 0.00 | 0.00 | 0.00 | 64 | |
| 20260905014831 | 84 | 322 | 0.0 | 0.0 | 0.00 | 0.00 | 0.00 | 64 | |
| 20260905014327 | 85 | 322 | 0.0 | 0.0 | 0.00 | 0.00 | 0.00 | 64 | |
| 20260905013821 | 85 | 322 | 0.0 | 0.0 | 0.00 | 0.00 | 0.00 | 63 | |
| 20260905013318 | 85 | 322 | 0.0 | 0.0 | 0.00 | 0.00 | 0.00 | 62 | |
| 20260905012813 | 86 | 322 | 0.0 | 0.0 | 0.00 | 0.00 | 0.00 | 62 | |
| 20260905012308 | 86 | 322 | 0.0 | 0.0 | 0.00 | 0.00 | 0.00 | 61 | |
| 20260905011805 | 86 | 322 | 0.0 | 0.0 | 0.00 | 0.00 | 0.00 | 60 | |
| 20260905011301 | 87 | 322 | 0.0 | 0.0 | 0.00 | 0.00 | 0.00 | 59 | |
| 20260905010801 | 87 | 321 | 0.0 | 0.0 | 0.00 | 0.00 | 0.00 | 59 | |
| 20260905010256 | 87 | 321 | 0.0 | 0.0 | 0.00 | 0.00 | 0.00 | 58 | |
| 20260905005753 | 88 | 321 | 0.0 | 0.0 | 0.00 | 0.00 | 0.00 | 57 | |
| 20260905005253 | 88 | 321 | 0.0 | 0.0 | 0.00 | 0.00 | 0.00 | 56 | |
| 20260905004753 | 89 | 321 | 0.0 | 0.0 | 0.00 | 0.00 | 0.00 | 56 | |
| 20260905004247 | 90 | 321 | 0.0 | 0.0 | 0.00 | 0.00 | 0.00 | 55 | |
| 20260905003742 | 90 | 321 | 0.0 | 0.0 | 0.00 | 0.00 | 0.00 | 53 | |
| 20260905003238 | 91 | 325 | 0.0 | 0.0 | 0.00 | 0.00 | 0.00 | 53 | |
| 20260905002733 | 92 | 324 | 0.0 | 0.0 | 0.00 | 0.00 | 0.00 | 51 | |
| 20260905002228 | 93 | 321 | 0.0 | 1.0 | 0.00 | 0.00 | 0.00 | 51 | |
| 20260905001723 | 93 | 321 | 0.0 | 1.0 | 0.00 | 0.00 | 0.00 | 49 | |
| 20260905001222 | 93 | 343 | 1.0 | 2.0 | 0.00 | 0.00 | 0.00 | 49 | |
| 20260905000718 | 94 | 321 | 0.0 | 1.0 | 0.00 | 0.00 | 0.00 | 48 | |
| 20260905000213 | 93 | 325 | 2.0 | 2.0 | 0.00 | 0.00 | 0.00 | 48 | |
| 20260904235708 | 93 | 324 | 0.0 | 2.0 | 0.00 | 0.00 | 0.00 | 48 | |
| 20260904235203 | 94 | 341 | 2.0 | 2.0 | 0.00 | 0.00 | 0.00 | 48 | |
| 20260904234657 | 94 | 325 | 0.0 | 1.0 | 0.00 | 0.00 | 0.00 | 47 | |
| 20260904234153 | 94 | 324 | 0.0 | 1.0 | 0.00 | 0.00 | 0.00 | 48 | |
| 20260904233649 | 94 | 332 | 1.0 | 2.0 | 0.00 | 0.00 | 0.00 | 48 | |
| 20260904233144 | 94 | 329 | 3.0 | 3.0 | 0.00 | 0.00 | 0.00 | 47 | |
| 20260904232641 | 94 | 333 | 1.0 | 3.0 | 0.00 | 0.00 | 0.00 | 47 | |
| 20260904232137 | 94 | 11 | 2.0 | 5.0 | 0.00 | 0.00 | 0.00 | 48 | |
| 20260904231632 | 94 | 328 | 1.0 | 1.0 | 0.00 | 0.00 | 0.00 | 48 | |
| 20260904231127 | 94 | 332 | 1.0 | 5.0 | 0.00 | 0.00 | 0.00 | 47 | |
| 20260904230626 | 94 | 298 | 1.0 | 1.0 | 0.00 | 0.00 | 0.00 | 48 | |
| 20260904230122 | 94 | 327 | 1.0 | 2.0 | 0.00 | 0.00 | 0.00 | 48 | |
| 20260904225619 | 95 | 325 | 1.0 | 5.0 | 0.00 | 0.00 | 0.00 | 48 | |
| 20260904225115 | 95 | 351 | 1.0 | 2.0 | 0.00 | 0.00 | 0.00 | 48 | |
| 20260904224609 | 94 | 347 | 1.0 | 3.0 | 0.00 | 0.00 | 0.00 | 48 | |
| 20260904224104 | 95 | 321 | 1.0 | 1.0 | 0.00 | 0.00 | 0.00 | 48 | |
| 20260904223603 | 95 | 341 | 2.0 | 3.0 | 0.00 | 0.00 | 0.00 | 47 | |
| 20260904223059 | 95 | 326 | 1.0 | 5.0 | 0.00 | 0.00 | 0.00 | 47 | |
| 20260904222555 | 95 | 319 | 1.0 | 2.0 | 0.00 | 0.00 | 0.00 | 48 | |
| 20260904222050 | 95 | 328 | 1.0 | 2.0 | 0.00 | 0.00 | 0.00 | 47 | |
| 20260904221550 | 95 | 337 | 1.0 | 2.0 | 0.00 | 0.00 | 0.00 | 48 | |
| 20260904221045 | 95 | 327 | 2.0 | 6.0 | 0.00 | 0.00 | 0.00 | 48 | |
| 20260904220544 | 95 | 331 | 1.0 | 2.0 | 0.00 | 0.00 | 0.00 | 48 | |
| 20260904220040 | 95 | 338 | 1.0 | 3.0 | 0.00 | 0.00 | 0.00 | 48 | |
| 20260904215534 | 95 | 323 | 2.0 | 2.0 | 0.00 | 0.00 | 0.00 | 48 | |
| 20260904215030 | 95 | 325 | 0.0 | 3.0 | 0.00 | 0.00 | 0.00 | 49 | |
| 20260904214525 | 95 | 334 | 2.0 | 5.0 | 0.00 | 0.00 | 0.00 | 49 | |
| 20260904214021 | 95 | 330 | 1.0 | 6.0 | 0.00 | 0.00 | 0.00 | 47 | |
| 20260904213518 | 95 | 341 | 3.0 | 3.0 | 0.00 | 0.00 | 0.00 | 47 | |
| 20260904213016 | 95 | 344 | 1.0 | 2.0 | 0.00 | 0.00 | 0.00 | 48 | |
| 20260904212515 | 95 | 304 | 0.0 | 1.0 | 0.00 | 0.00 | 0.00 | 48 | |
| 20260904212010 | 95 | 321 | 1.0 | 3.0 | 0.00 | 0.00 | 0.00 | 47 | |
| 20260904211504 | 95 | 325 | 0.0 | 2.0 | 0.00 | 0.00 | 0.00 | 47 | |
| 20260904211000 | 95 | 5 | 2.0 | 3.0 | 0.00 | 0.00 | 0.00 | 48 | |
| 20260904210459 | 95 | 319 | 2.0 | 5.0 | 0.00 | 0.00 | 0.00 | 48 | |
| 20260904205954 | 95 | 329 | 2.0 | 3.0 | 0.00 | 0.00 | 0.00 | 47 | |
| 20260904205450 | 95 | 335 | 3.0 | 3.0 | 0.00 | 0.00 | 0.00 | 47 | |
| 20260904204947 | 95 | 326 | 2.0 | 3.0 | 0.00 | 0.00 | 0.00 | 49 | |
| 20260904204443 | 94 | 321 | 1.0 | 1.0 | 0.00 | 0.00 | 0.00 | 49 | |
| 20260904203938 | 94 | 332 | 0.0 | 1.0 | 0.00 | 0.00 | 0.00 | 48 | |
| 20260904203435 | 95 | 323 | 2.0 | 2.0 | 0.00 | 0.00 | 0.00 | 49 | |
| 20260904202930 | 94 | 320 | 2.0 | 3.0 | 0.00 | 0.00 | 0.00 | 49 | |
| 20260904202426 | 95 | 324 | 0.0 | 5.0 | 0.00 | 0.00 | 0.00 | 49 | |
| 20260904201922 | 95 | 325 | 3.0 | 6.0 | 0.00 | 0.00 | 0.00 | 48 | |
| 20260904201417 | 95 | 329 | 1.0 | 3.0 | 0.00 | 0.00 | 0.00 | 48 | |
| 20260904200913 | 95 | 328 | 1.0 | 3.0 | 0.00 | 0.00 | 0.00 | 49 | |
| 20260904200411 | 94 | 338 | 2.0 | 6.0 | 0.00 | 0.00 | 0.00 | 49 | |
| 20260904195906 | 94 | 319 | 0.0 | 2.0 | 0.00 | 0.00 | 0.00 | 50 | |
| 20260904195404 | 95 | 317 | 0.0 | 2.0 | 0.00 | 0.00 | 0.00 | 50 | |
| 20260904194859 | 94 | 312 | 1.0 | 2.0 | 0.00 | 0.00 | 0.00 | 50 | |
| 20260904194358 | 94 | 335 | 2.0 | 6.0 | 0.00 | 0.00 | 0.00 | 49 | |
| 20260904193854 | 94 | 323 | 2.0 | 3.0 | 0.00 | 0.00 | 0.00 | 49 | |
| 20260904193349 | 94 | 354 | 2.0 | 2.0 | 0.00 | 0.00 | 0.00 | 49 | |
| 20260904192844 | 94 | 343 | 2.0 | 2.0 | 0.00 | 0.00 | 0.00 | 50 | |
| 20260904192339 | 94 | 359 | 4.0 | 8.0 | 0.00 | 0.00 | 0.00 | 50 | |
| 20260904191836 | 94 | 326 | 1.0 | 3.0 | 0.00 | 0.00 | 0.00 | 51 | |
| 20260904191332 | 94 | 29 | 3.0 | 5.0 | 0.00 | 0.00 | 0.00 | 50 | |
| 20260904190828 | 94 | 325 | 1.0 | 3.0 | 0.00 | 0.00 | 0.00 | 51 | |
| 20260904190324 | 93 | 346 | 2.0 | 5.0 | 0.00 | 0.00 | 0.00 | 51 | |
| 20260904185820 | 93 | 322 | 0.0 | 2.0 | 0.00 | 0.00 | 0.00 | 53 | |
| 20260904185316 | 94 | 322 | 4.0 | 6.0 | 0.00 | 0.00 | 0.00 | 51 | |
| 20260904184815 | 94 | 337 | 2.0 | 3.0 | 0.00 | 0.00 | 0.00 | 49 | |
| 20260904184310 | 93 | 340 | 2.0 | 6.0 | 0.00 | 0.00 | 0.00 | 51 | |
| 20260904183805 | 93 | 322 | 1.0 | 3.0 | 0.00 | 0.00 | 0.00 | 51 | |
| 20260904183300 | 93 | 30 | 2.0 | 3.0 | 0.00 | 0.00 | 0.00 | 51 | |
| 20260904182755 | 93 | 320 | 1.0 | 2.0 | 0.00 | 0.00 | 0.00 | 51 | |
| 20260904182250 | 92 | 27 | 1.0 | 2.0 | 0.00 | 0.00 | 0.00 | 52 | |
| 20260904181746 | 92 | 304 | 1.0 | 2.0 | 0.00 | 0.00 | 0.00 | 52 | |
| 20260904181246 | 92 | 322 | 1.0 | 1.0 | 0.00 | 0.00 | 0.00 | 54 | |
| 20260904180741 | 92 | 331 | 2.0 | 5.0 | 0.00 | 0.00 | 0.00 | 52 | |
| 20260904180236 | 92 | 328 | 0.0 | 1.0 | 0.00 | 0.00 | 0.00 | 53 | |
| 20260904175735 | 92 | 330 | 2.0 | 6.0 | 0.00 | 0.00 | 0.00 | 53 | |
| 20260904175234 | 92 | 329 | 1.0 | 5.0 | 0.00 | 0.00 | 0.00 | 55 | |
| 20260904174729 | 91 | 335 | 1.0 | 2.0 | 0.00 | 0.00 | 0.00 | 55 | |
| 20260904174225 | 91 | 345 | 3.0 | 6.0 | 0.00 | 0.00 | 0.00 | 54 | |
| 20260904173721 | 91 | 319 | 1.0 | 3.0 | 0.00 | 0.00 | 0.00 | 56 | |
| 20260904173221 | 91 | 330 | 0.0 | 2.0 | 0.00 | 0.00 | 0.00 | 55 | |
| 20260904172718 | 91 | 326 | 1.0 | 2.0 | 0.00 | 0.00 | 0.00 | 55 | |
| 20260904172216 | 90 | 296 | 0.0 | 1.0 | 0.00 | 0.00 | 0.00 | 56 | |
| 20260904171712 | 90 | 243 | 1.0 | 6.0 | 0.00 | 0.00 | 0.00 | 57 | |
| 20260904171207 | 90 | 318 | 1.0 | 2.0 | 0.00 | 0.00 | 0.00 | 56 | |
| 20260904170703 | 90 | 325 | 0.0 | 8.0 | 0.00 | 0.00 | 0.00 | 55 | |
| 20260904170159 | 90 | 325 | 2.0 | 6.0 | 0.00 | 0.00 | 0.00 | 57 | |
| 20260904165657 | 90 | 314 | 0.0 | 2.0 | 0.00 | 0.00 | 0.00 | 58 | |
| 20260904165156 | 90 | 330 | 1.0 | 3.0 | 0.00 | 0.00 | 0.00 | 58 | |
| 20260904164652 | 89 | 32 | 1.0 | 3.0 | 0.00 | 0.00 | 0.00 | 58 | |
| 20260904164146 | 89 | 325 | 2.0 | 2.0 | 0.00 | 0.00 | 0.00 | 59 | |
| 20260904163643 | 89 | 30 | 4.0 | 6.0 | 0.00 | 0.00 | 0.00 | 57 | |
| 20260904163138 | 89 | 358 | 1.0 | 3.0 | 0.00 | 0.00 | 0.00 | 59 | |
| 20260904162637 | 88 | 332 | 0.0 | 1.0 | 0.00 | 0.00 | 0.00 | 59 | |
| 20260904162132 | 88 | 0 | 1.0 | 2.0 | 0.00 | 0.00 | 0.00 | 60 | |
| 20260904161627 | 88 | 328 | 3.0 | 5.0 | 0.00 | 0.00 | 0.00 | 59 | |
| 20260904161122 | 87 | 325 | 1.0 | 5.0 | 0.00 | 0.00 | 0.00 | 61 | |
| 20260904160618 | 87 | 345 | 1.0 | 3.0 | 0.00 | 0.00 | 0.00 | 61 | |
| 20260904160114 | 87 | 298 | 1.0 | 2.0 | 0.00 | 0.00 | 0.00 | 62 | |
| 20260904155608 | 87 | 328 | 1.0 | 2.0 | 0.00 | 0.00 | 0.00 | 62 | |
| 20260904155102 | 86 | 351 | 3.0 | 3.0 | 0.00 | 0.00 | 0.00 | 64 | |
| 20260904154556 | 86 | 1 | 2.0 | 2.0 | 0.00 | 0.00 | 0.00 | 64 | |
| 20260904154051 | 85 | 354 | 1.0 | 2.0 | 0.00 | 0.00 | 0.00 | 63 | |
| 20260904153550 | 85 | 348 | 2.0 | 3.0 | 0.00 | 0.00 | 0.00 | 64 | |
| 20260904153047 | 85 | 328 | 2.0 | 2.0 | 0.00 | 0.00 | 0.00 | 65 | |
| 20260904152542 | 84 | 323 | 0.0 | 1.0 | 0.00 | 0.00 | 0.00 | 65 | |
| 20260904152038 | 84 | 312 | 0.0 | 2.0 | 0.00 | 0.00 | 0.00 | 66 | |
| 20260904151533 | 84 | 326 | 0.0 | 1.0 | 0.00 | 0.00 | 0.00 | 66 | |
| 20260904151026 | 84 | 331 | 1.0 | 2.0 | 0.00 | 0.00 | 0.00 | 66 | |
| 20260904150520 | 84 | 316 | 1.0 | 2.0 | 0.00 | 0.00 | 0.00 | 66 | |
| 20260904150015 | 84 | 332 | 0.0 | 2.0 | 0.00 | 0.00 | 0.00 | 66 | |
| 20260904145510 | 83 | 338 | 1.0 | 2.0 | 0.00 | 0.00 | 0.00 | 67 | |
| 20260904145005 | 83 | 326 | 0.0 | 2.0 | 0.00 | 0.00 | 0.00 | 68 | |
| 20260904144501 | 82 | 334 | 2.0 | 3.0 | 0.00 | 0.00 | 0.00 | 69 | |
| 20260904143956 | 82 | 320 | 1.0 | 2.0 | 0.00 | 0.00 | 0.00 | 69 | |
| 20260904143452 | 82 | 351 | 1.0 | 1.0 | 0.00 | 0.00 | 0.00 | 69 | |
| 20260904142949 | 82 | 307 | 1.0 | 1.0 | 0.00 | 0.00 | 0.00 | 69 | |
| 20260904142445 | 82 | 339 | 1.0 | 3.0 | 0.00 | 0.00 | 0.00 | 69 | |
| 20260904141944 | 82 | 334 | 0.0 | 5.0 | 0.00 | 0.00 | 0.00 | 70 | |
| 20260904141439 | 82 | 333 | 1.0 | 5.0 | 0.00 | 0.00 | 0.00 | 69 | |
| 20260904140936 | 81 | 337 | 1.0 | 1.0 | 0.00 | 0.00 | 0.00 | 69 | |
| 20260904140436 | 81 | 352 | 1.0 | 2.0 | 0.00 | 0.00 | 0.00 | 69 | |
| 20260904135935 | 80 | 326 | 0.0 | 5.0 | 0.00 | 0.00 | 0.00 | 70 | |
| 20260904135434 | 80 | 322 | 0.0 | 0.0 | 0.00 | 0.00 | 0.00 | 71 | |
| 20260904134931 | 80 | 334 | 0.0 | 0.0 | 0.00 | 0.00 | 0.00 | 71 | |
| 20260904134431 | 80 | 330 | 0.0 | 2.0 | 0.00 | 0.00 | 0.00 | 72 | |
| 20260904133925 | 80 | 326 | 1.0 | 1.0 | 0.00 | 0.00 | 0.00 | 72 | |
| 20260904133420 | 79 | 320 | 0.0 | 1.0 | 0.00 | 0.00 | 0.00 | 73 | |
| 20260904132916 | 79 | 334 | 1.0 | 3.0 | 0.00 | 0.00 | 0.00 | 73 | |
| 20260904132411 | 78 | 345 | 1.0 | 3.0 | 0.00 | 0.00 | 0.00 | 74 | |
| 20260904131910 | 78 | 328 | 1.0 | 3.0 | 0.00 | 0.00 | 0.00 | 74 | |
| 20260904131406 | 78 | 339 | 2.0 | 3.0 | 0.00 | 0.00 | 0.00 | 75 | |
| 20260904130901 | 77 | 337 | 2.0 | 2.0 | 0.00 | 0.00 | 0.00 | 75 | |
| 20260904130400 | 77 | 327 | 1.0 | 2.0 | 0.00 | 0.00 | 0.00 | 75 | |
| 20260904125855 | 77 | 330 | 0.0 | 1.0 | 0.00 | 0.00 | 0.00 | 75 | |
| 20260904125352 | 77 | 326 | 0.0 | 2.0 | 0.00 | 0.00 | 0.00 | 75 | |
| 20260904124850 | 78 | 319 | 2.0 | 2.0 | 0.00 | 0.00 | 0.00 | 74 | |
| 20260904124348 | 77 | 327 | 0.0 | 0.0 | 0.00 | 0.00 | 0.00 | 76 | |
| 20260904123843 | 75 | 323 | 0.0 | 1.0 | 0.00 | 0.00 | 0.00 | 78 | |
| 20260904123337 | 75 | 328 | 1.0 | 1.0 | 0.00 | 0.00 | 0.00 | 78 | |
| 20260904122832 | 75 | 324 | 0.0 | 0.0 | 0.00 | 0.00 | 0.00 | 79 | |
| 20260904122327 | 75 | 326 | 0.0 | 1.0 | 0.00 | 0.00 | 0.00 | 79 | |
| 20260904121822 | 75 | 328 | 0.0 | 0.0 | 0.00 | 0.00 | 0.00 | 79 | |
| 20260904121318 | 75 | 326 | 0.0 | 1.0 | 0.00 | 0.00 | 0.00 | 79 | |
| 20260904120815 | 74 | 326 | 0.0 | 0.0 | 0.00 | 0.00 | 0.00 | 79 | |
| 20260904120310 | 74 | 332 | 0.0 | 0.0 | 0.00 | 0.00 | 0.00 | 80 | |
| 20260904115805 | 74 | 323 | 0.0 | 1.0 | 0.00 | 0.00 | 0.00 | 79 | |
| 20260904115259 | 75 | 328 | 1.0 | 1.0 | 0.00 | 0.00 | 0.00 | 79 | |
| 20260904114754 | 75 | 327 | 0.0 | 1.0 | 0.00 | 0.00 | 0.00 | 79 | |
| 20260904114254 | 75 | 329 | 0.0 | 1.0 | 0.00 | 0.00 | 0.00 | 79 | |
| 20260904113750 | 75 | 330 | 2.0 | 2.0 | 0.00 | 0.00 | 0.00 | 79 | |
| 20260904113248 | 75 | 333 | 1.0 | 2.0 | 0.00 | 0.00 | 0.00 | 79 | |
| 20260904112743 | 75 | 329 | 0.0 | 0.0 | 0.00 | 0.00 | 0.00 | 79 | |
| 20260904112239 | 75 | 332 | 1.0 | 2.0 | 0.00 | 0.00 | 0.00 | 79 | |
| 20260904111735 | 75 | 328 | 0.0 | 0.0 | 0.00 | 0.00 | 0.00 | 79 | |
| 20260904111231 | 75 | 328 | 0.0 | 0.0 | 0.00 | 0.00 | 0.00 | 78 | |
| 20260904110726 | 75 | 328 | 0.0 | 0.0 | 0.00 | 0.00 | 0.00 | 78 | |
| 20260904110225 | 75 | 328 | 0.0 | 0.0 | 0.00 | 0.00 | 0.00 | 78 | |
| 20260904105720 | 75 | 325 | 0.0 | 1.0 | 0.00 | 0.00 | 0.00 | 78 | |
| 20260904105215 | 75 | 328 | 1.0 | 1.0 | 0.00 | 0.00 | 0.00 | 78 | |
| 20260904104710 | 75 | 329 | 1.0 | 1.0 | 0.00 | 0.00 | 0.00 | 78 | |
| 20260904104206 | 75 | 328 | 0.0 | 1.0 | 0.00 | 0.00 | 0.00 | 77 | |
| 20260904103703 | 75 | 328 | 0.0 | 1.0 | 0.00 | 0.00 | 0.00 | 77 | |
| 20260904103157 | 75 | 330 | 0.0 | 1.0 | 0.00 | 0.00 | 0.00 | 77 | |
| 20260904102653 | 76 | 334 | 0.0 | 0.0 | 0.00 | 0.00 | 0.00 | 77 | |
| 20260904102148 | 76 | 337 | 1.0 | 1.0 | 0.00 | 0.00 | 0.00 | 77 | |
| 20260904101645 | 76 | 326 | 0.0 | 1.0 | 0.00 | 0.00 | 0.00 | 77 | |
| 20260904101140 | 76 | 330 | 1.0 | 2.0 | 0.00 | 0.00 | 0.00 | 77 | |
| 20260904100636 | 76 | 337 | 1.0 | 1.0 | 0.00 | 0.00 | 0.00 | 77 | |
| 20260904100130 | 76 | 325 | 0.0 | 0.0 | 0.00 | 0.00 | 0.00 | 77 | |
| 20260904095625 | 76 | 326 | 0.0 | 0.0 | 0.00 | 0.00 | 0.00 | 76 | |
| 20260904095126 | 76 | 326 | 0.0 | 1.0 | 0.00 | 0.00 | 0.00 | 76 | |
| 20260904094621 | 76 | 325 | 0.0 | 1.0 | 0.00 | 0.00 | 0.00 | 76 | |
| 20260904094116 | 76 | 328 | 0.0 | 1.0 | 0.00 | 0.00 | 0.00 | 76 | |
| 20260904093613 | 76 | 329 | 0.0 | 0.0 | 0.00 | 0.00 | 0.00 | 75 | |
| 20260904093112 | 77 | 329 | 0.0 | 0.0 | 0.00 | 0.00 | 0.00 | 75 | |
| 20260904092609 | 77 | 325 | 0.0 | 1.0 | 0.00 | 0.00 | 0.00 | 74 | |
| 20260904092105 | 77 | 327 | 0.0 | 1.0 | 0.00 | 0.00 | 0.00 | 74 | |
| 20260904091601 | 78 | 330 | 0.0 | 1.0 | 0.00 | 0.00 | 0.00 | 73 | |
| 20260904091100 | 78 | 330 | 0.0 | 0.0 | 0.00 | 0.00 | 0.00 | 72 | |
| 20260904090556 | 78 | 325 | 0.0 | 1.0 | 0.00 | 0.00 | 0.00 | 72 | |
| 20260904090052 | 78 | 327 | 0.0 | 0.0 | 0.00 | 0.00 | 0.00 | 73 | |
| 20260904085552 | 78 | 324 | 0.0 | 0.0 | 0.00 | 0.00 | 0.00 | 72 | |
| 20260904085051 | 78 | 326 | 0.0 | 0.0 | 0.00 | 0.00 | 0.00 | 72 | |
| 20260904084547 | 78 | 326 | 0.0 | 0.0 | 0.00 | 0.00 | 0.00 | 72 | |
| 20260904084043 | 78 | 327 | 0.0 | 0.0 | 0.00 | 0.00 | 0.00 | 72 | |
| 20260904083539 | 78 | 325 | 0.0 | 0.0 | 0.00 | 0.00 | 0.00 | 72 | |
| 20260904083035 | 78 | 324 | 0.0 | 0.0 | 0.00 | 0.00 | 0.00 | 72 | |
| 20260904082530 | 78 | 328 | 0.0 | 0.0 | 0.00 | 0.00 | 0.00 | 73 | |
| 20260904082025 | 78 | 322 | 0.0 | 0.0 | 0.00 | 0.00 | 0.00 | 73 | |
| 20260904081520 | 78 | 324 | 0.0 | 0.0 | 0.00 | 0.00 | 0.00 | 73 | |
| 20260904081016 | 78 | 323 | 0.0 | 0.0 | 0.00 | 0.00 | 0.00 | 73 | |
| 20260904080511 | 78 | 324 | 0.0 | 0.0 | 0.00 | 0.00 | 0.00 | 73 | |
| 20260904080007 | 78 | 322 | 0.0 | 0.0 | 0.00 | 0.00 | 0.00 | 73 | |
| 20260904075503 | 78 | 321 | 0.0 | 0.0 | 0.00 | 0.00 | 0.00 | 72 | |
| 20260904075003 | 78 | 321 | 0.0 | 0.0 | 0.00 | 0.00 | 0.00 | 72 | |
| 20260904074457 | 78 | 322 | 0.0 | 0.0 | 0.00 | 0.00 | 0.00 | 71 | |
| 20260904073952 | 78 | 321 | 0.0 | 0.0 | 0.00 | 0.00 | 0.00 | 71 | |
| 20260904073447 | 79 | 321 | 0.0 | 0.0 | 0.00 | 0.00 | 0.00 | 71 | |
| 20260904072943 | 79 | 321 | 0.0 | 0.0 | 0.00 | 0.00 | 0.00 | 70 | |
| 20260904072439 | 79 | 322 | 0.0 | 0.0 | 0.00 | 0.00 | 0.00 | 70 | |
| 20260904071933 | 80 | 322 | 0.0 | 0.0 | 0.00 | 0.00 | 0.00 | 70 | |
| 20260904071429 | 80 | 324 | 0.0 | 0.0 | 0.00 | 0.00 | 0.00 | 69 | |
| 20260904070929 | 80 | 321 | 0.0 | 0.0 | 0.00 | 0.00 | 0.00 | 69 | |
| 20260904070427 | 80 | 325 | 0.0 | 0.0 | 0.00 | 0.00 | 0.00 | 68 | |
| 20260904065922 | 80 | 325 | 0.0 | 0.0 | 0.00 | 0.00 | 0.00 | 68 | |
| 20260904065419 | 80 | 324 | 0.0 | 0.0 | 0.00 | 0.00 | 0.00 | 68 | |
| 20260904064918 | 81 | 328 | 0.0 | 0.0 | 0.00 | 0.00 | 0.00 | 68 | |
| 20260904064415 | 81 | 321 | 0.0 | 0.0 | 0.00 | 0.00 | 0.00 | 67 | |
| 20260904063910 | 81 | 329 | 0.0 | 0.0 | 0.00 | 0.00 | 0.00 | 67 | |
| 20260904063407 | 81 | 325 | 0.0 | 0.0 | 0.00 | 0.00 | 0.00 | 66 | |
| 20260904062901 | 82 | 316 | 0.0 | 0.0 | 0.00 | 0.00 | 0.00 | 66 | |
| 20260904062357 | 82 | 329 | 0.0 | 1.0 | 0.00 | 0.00 | 0.00 | 66 | |
| 20260904061853 | 81 | 332 | 1.0 | 1.0 | 0.00 | 0.00 | 0.00 | 66 | |
| 20260904061349 | 81 | 324 | 0.0 | 1.0 | 0.00 | 0.00 | 0.00 | 67 | |
| 20260904060845 | 81 | 322 | 0.0 | 1.0 | 0.00 | 0.00 | 0.00 | 66 | |
| 20260904060341 | 82 | 326 | 0.0 | 0.0 | 0.00 | 0.00 | 0.00 | 65 | |
| 20260904055836 | 82 | 324 | 0.0 | 1.0 | 0.00 | 0.00 | 0.00 | 65 | |
| 20260904055331 | 82 | 325 | 0.0 | 2.0 | 0.00 | 0.00 | 0.00 | 65 | |
| 20260904054826 | 82 | 333 | 1.0 | 1.0 | 0.00 | 0.00 | 0.00 | 65 | |
| 20260904054322 | 82 | 327 | 0.0 | 1.0 | 0.00 | 0.00 | 0.00 | 64 | |
| 20260904053818 | 82 | 329 | 0.0 | 0.0 | 0.00 | 0.00 | 0.00 | 64 | |
| 20260904053317 | 82 | 325 | 0.0 | 0.0 | 0.00 | 0.00 | 0.00 | 64 | |
| 20260904052813 | 82 | 328 | 0.0 | 0.0 | 0.00 | 0.00 | 0.00 | 64 | |
| 20260904052309 | 82 | 325 | 0.0 | 1.0 | 0.00 | 0.00 | 0.00 | 64 | |
| 20260904051806 | 82 | 325 | 0.0 | 0.0 | 0.00 | 0.00 | 0.00 | 63 | |
| 20260904051301 | 82 | 325 | 0.0 | 0.0 | 0.00 | 0.00 | 0.00 | 63 | |
| 20260904050756 | 82 | 322 | 0.0 | 0.0 | 0.00 | 0.00 | 0.00 | 63 | |
| 20260904050252 | 82 | 329 | 0.0 | 0.0 | 0.00 | 0.00 | 0.00 | 63 | |
| 20260904045747 | 82 | 324 | 0.0 | 1.0 | 0.00 | 0.00 | 0.00 | 63 | |
| 20260904045241 | 83 | 322 | 0.0 | 0.0 | 0.00 | 0.00 | 0.00 | 62 | |
| 20260904044736 | 83 | 326 | 0.0 | 1.0 | 0.00 | 0.00 | 0.00 | 62 | |
| 20260904044233 | 83 | 329 | 1.0 | 1.0 | 0.00 | 0.00 | 0.00 | 61 | |
| 20260904043729 | 83 | 323 | 0.0 | 1.0 | 0.00 | 0.00 | 0.00 | 61 | |
| 20260904043225 | 83 | 325 | 0.0 | 1.0 | 0.00 | 0.00 | 0.00 | 61 | |
| 20260904042720 | 84 | 321 | 0.0 | 0.0 | 0.00 | 0.00 | 0.00 | 61 | |
| 20260904042217 | 83 | 326 | 0.0 | 1.0 | 0.00 | 0.00 | 0.00 | 61 | |
| 20260904041716 | 83 | 324 | 0.0 | 1.0 | 0.00 | 0.00 | 0.00 | 61 | |
| 20260904041212 | 84 | 323 | 0.0 | 0.0 | 0.00 | 0.00 | 0.00 | 61 | |
| 20260904040708 | 84 | 332 | 1.0 | 1.0 | 0.00 | 0.00 | 0.00 | 59 | |
| 20260904040204 | 85 | 323 | 0.0 | 0.0 | 0.00 | 0.00 | 0.00 | 59 | |
| 20260904035659 | 85 | 324 | 0.0 | 0.0 | 0.00 | 0.00 | 0.00 | 58 | |
| 20260904035154 | 85 | 329 | 1.0 | 1.0 | 0.00 | 0.00 | 0.00 | 58 | |
| 20260904034653 | 85 | 330 | 0.0 | 0.0 | 0.00 | 0.00 | 0.00 | 57 | |
| 20260904034149 | 86 | 324 | 1.0 | 1.0 | 0.00 | 0.00 | 0.00 | 57 | |
| 20260904033645 | 86 | 327 | 1.0 | 3.0 | 0.00 | 0.00 | 0.00 | 57 | |
| 20260904033142 | 86 | 330 | 0.0 | 1.0 | 0.00 | 0.00 | 0.00 | 57 | |
| 20260904032637 | 86 | 326 | 1.0 | 2.0 | 0.00 | 0.00 | 0.00 | 57 |